Date String (YYYY-MM-DD hh:mm:ss) UTC,Instrument flags,Ambient pressure (hPa),Sample flow (lpm),Bypass flow (lpm),Sample temperature (°C),Ambient temperature (°C),ASC tube jacket temperature (°C),LED temperature (°C),Box temperature (°C),Sample RH (%),Span deviation,Mass concentration (μg/m³),Mass concentration (μg/m³),Mass concentration (μg/m³)
DateTimeUTC,F1_M11,P_M11,Q1_M11,Q2_M11,T1_M11,T2_M11,T3_M11,T4_M11,T5_M11,U1_M11,ZSPAN_M11,X0_M11,X2_M11,X1_M11
2022-07-03 19:00:00,,0824.7,5.00,0.00,29.2,28.0,00.0,38.0,31.2,25.6,0000.0,0010.54,0004.82,0004.24
2022-07-03 19:01:00,,0824.6,5.00,0.00,29.3,28.2,00.0,38.0,31.3,25.6,0000.0,0010.63,0004.79,0004.20
2022-07-03 19:02:00,,0824.6,5.02,0.00,29.3,28.1,00.0,38.0,31.3,25.7,0000.0,0010.72,0004.80,0004.20
2022-07-03 19:03:00,,0824.6,5.01,0.00,29.3,27.4,00.0,37.9,31.2,25.7,0000.0,0010.95,0004.81,0004.19
2022-07-03 19:04:00,,0824.6,5.00,0.00,29.3,27.0,00.0,37.9,31.1,25.8,0000.0,0011.07,0004.80,0004.19
2022-07-03 19:05:00,,0824.5,4.99,0.00,29.2,27.0,00.0,37.9,31.0,26.2,0000.0,0010.79,0004.74,0004.16
2022-07-03 19:06:00,,0824.7,4.99,0.00,29.2,27.2,00.0,37.9,31.0,26.7,0000.0,0010.20,0004.67,0004.14
2022-07-03 19:07:00,,0824.8,5.00,0.00,29.2,27.3,00.0,37.9,31.0,26.8,0000.0,0009.21,0004.68,0004.13
2022-07-03 19:08:00,,0824.9,5.00,0.00,29.2,27.5,00.0,37.9,31.1,26.8,0000.0,0009.83,0004.71,0004.13
2022-07-03 19:09:00,,0824.7,5.01,0.00,29.2,27.7,00.0,37.9,31.1,26.9,0000.0,0010.09,0004.73,0004.14
2022-07-03 19:10:00,,0824.6,5.00,0.00,29.2,27.9,00.0,38.0,31.2,27.0,0000.0,0010.04,0004.76,0004.19
2022-07-03 19:11:00,,0824.5,5.00,0.00,29.3,28.1,00.0,38.0,31.3,26.5,0000.0,0010.00,0004.82,0004.23
2022-07-03 19:12:00,,0824.5,4.99,0.00,29.3,28.1,00.0,38.0,31.3,26.6,0000.0,0010.01,0004.87,0004.27
2022-07-03 19:13:00,,0824.4,5.00,0.00,29.3,27.5,00.0,37.9,31.2,26.8,0000.0,0010.69,0004.92,0004.31
2022-07-03 19:14:00,,0824.4,5.00,0.00,29.3,27.1,00.0,37.9,31.1,26.9,0000.0,0011.53,0004.95,0004.34
2022-07-03 19:15:00,,0824.4,5.01,0.00,29.2,27.0,00.0,37.9,31.0,27.1,0000.0,0011.32,0004.97,0004.38
2022-07-03 19:16:00,,0824.4,5.00,0.00,29.2,27.1,00.0,37.9,31.0,27.3,0000.0,0011.70,0005.04,0004.42
2022-07-03 19:17:00,,0824.5,5.00,0.00,29.2,27.3,00.0,37.9,31.0,27.4,0000.0,0013.85,0005.10,0004.45
2022-07-03 19:18:00,,0824.5,4.99,0.00,29.2,27.5,00.0,37.9,31.1,27.6,0000.0,0014.08,0005.13,0004.48
2022-07-03 19:19:00,,0824.5,5.00,0.00,29.2,27.7,00.0,37.9,31.1,27.9,0000.0,0014.32,0005.12,0004.50
2022-07-03 19:20:00,,0824.5,4.99,0.00,29.2,27.9,00.0,37.9,31.2,28.1,0000.0,0013.77,0005.12,0004.51
2022-07-03 19:21:00,,0824.5,5.01,0.00,29.3,28.1,00.0,38.0,31.3,28.1,0000.0,0013.90,0005.18,0004.53
2022-07-03 19:22:00,,0824.4,5.00,0.00,29.3,28.2,00.0,38.0,31.3,28.3,0000.0,0014.83,0005.20,0004.56
2022-07-03 19:23:00,,0824.4,5.01,0.00,29.3,27.6,00.0,37.9,31.2,28.4,0000.0,0015.89,0005.22,0004.60
2022-07-03 19:24:00,,0824.4,5.00,0.00,29.3,27.1,00.0,37.9,31.1,28.8,0000.0,0015.68,0005.26,0004.64
2022-07-03 19:25:00,,0824.5,4.99,0.00,29.2,27.1,00.0,37.9,31.1,28.7,0000.0,0015.68,0005.33,0004.68
2022-07-03 19:26:00,,0824.4,5.01,0.00,29.2,27.2,00.0,37.9,31.0,29.1,0000.0,0016.04,0005.40,0004.71
2022-07-03 19:27:00,,0824.4,5.00,0.00,29.2,27.3,00.0,37.9,31.0,29.0,0000.0,0015.88,0005.43,0004.74
2022-07-03 19:28:00,,0824.4,5.01,0.00,29.2,27.5,00.0,37.9,31.1,29.3,0000.0,0013.93,0005.48,0004.77
2022-07-03 19:29:00,,0824.4,5.00,0.00,29.2,27.8,00.0,37.9,31.2,29.2,0000.0,0013.83,0005.53,0004.80
2022-07-03 19:30:00,,0824.4,5.00,0.00,29.2,28.0,00.0,38.0,31.2,29.0,0000.0,0013.14,0005.56,0004.82
2022-07-03 19:31:00,,0824.4,5.00,0.00,29.3,28.1,00.0,38.0,31.3,28.6,0000.0,0013.23,0005.57,0004.85
2022-07-03 19:32:00,,0824.4,5.00,0.00,29.3,28.0,00.0,38.0,31.3,28.8,0000.0,0013.51,0005.57,0004.86
2022-07-03 19:33:00,,0824.3,5.00,0.00,29.3,27.4,00.0,37.9,31.2,28.7,0000.0,0012.98,0005.62,0004.86
2022-07-03 19:34:00,,0824.3,5.00,0.00,29.2,27.0,00.0,37.9,31.1,28.9,0000.0,0012.31,0005.68,0004.85
2022-07-03 19:35:00,,0824.3,5.00,0.00,29.2,27.1,00.0,37.9,31.1,28.4,0000.0,0012.01,0005.68,0004.83
2022-07-03 19:36:00,,0824.2,5.01,0.00,29.2,27.2,00.0,37.9,31.0,28.6,0000.0,0011.25,0005.64,0004.82
2022-07-03 19:37:00,,0824.2,5.01,0.00,29.2,27.4,00.0,37.9,31.1,28.5,0000.0,0011.01,0005.61,0004.80
2022-07-03 19:38:00,,0824.2,5.00,0.00,29.2,27.6,00.0,37.9,31.1,27.9,0000.0,0011.09,0005.60,0004.78
2022-07-03 19:39:00,,0824.3,4.99,0.00,29.2,27.9,00.0,37.9,31.2,27.6,0000.0,0011.06,0005.58,0004.75
2022-07-03 19:40:00,,0824.3,4.99,0.00,29.3,28.1,00.0,38.0,31.3,27.0,0000.0,0011.61,0005.54,0004.72
2022-07-03 19:41:00,,0824.3,5.00,0.00,29.3,28.2,00.0,38.0,31.3,27.0,0000.0,0012.59,0005.55,0004.70
2022-07-03 19:42:00,,0824.3,5.00,0.00,29.3,27.8,00.0,37.9,31.3,26.8,0000.0,0012.59,0005.55,0004.68
2022-07-03 19:43:00,,0824.3,4.99,0.00,29.3,27.3,00.0,37.9,31.2,26.8,0000.0,0012.40,0005.53,0004.64
2022-07-03 19:44:00,,0824.4,5.01,0.00,29.2,27.2,00.0,37.9,31.1,26.6,0000.0,0012.58,0005.45,0004.59
2022-07-03 19:45:00,,0824.2,5.01,0.00,29.2,27.2,00.0,37.9,31.1,25.6,0000.0,0012.30,0005.33,0004.53
2022-07-03 19:46:00,,0824.2,5.00,0.00,29.2,27.4,00.0,37.9,31.0,25.2,0000.0,0011.93,0005.21,0004.47
2022-07-03 19:47:00,,0824.2,5.00,0.00,29.2,27.6,00.0,37.9,31.1,24.7,0000.0,0011.73,0005.11,0004.38
2022-07-03 19:48:00,,0824.3,5.01,0.00,29.2,27.8,00.0,37.9,31.2,24.9,0000.0,0011.52,0005.00,0004.29
2022-07-03 19:49:00,,0824.3,4.98,0.00,29.3,28.0,00.0,38.0,31.2,25.4,0000.0,0011.21,0004.90,0004.23
2022-07-03 19:50:00,,0824.4,4.99,0.00,29.3,28.2,00.0,38.0,31.3,25.2,0000.0,0011.07,0004.85,0004.19
2022-07-03 19:51:00,,0824.3,5.01,0.00,29.3,28.1,00.0,38.0,31.3,25.3,0000.0,0010.96,0004.77,0004.11
2022-07-03 19:52:00,,0824.2,5.01,0.00,29.3,27.6,00.0,37.9,31.2,24.5,0000.0,0009.72,0004.66,0004.03
2022-07-03 19:53:00,,0824.3,5.00,0.00,29.3,27.2,00.0,37.9,31.1,24.4,0000.0,0008.84,0004.52,0003.94
2022-07-03 19:54:00,,0824.4,5.01,0.00,29.3,27.2,00.0,37.9,31.1,24.6,0000.0,0008.92,0004.42,0003.87
2022-07-03 19:55:00,,0824.3,5.00,0.00,29.2,27.3,00.0,37.9,31.1,25.0,0000.0,0008.91,0004.36,0003.80
2022-07-03 19:56:00,,0824.2,5.00,0.00,29.2,27.5,00.0,37.9,31.1,25.1,0000.0,0008.35,0004.31,0003.74
2022-07-03 19:57:00,,0824.2,5.00,0.00,29.2,27.7,00.0,37.9,31.1,25.6,0000.0,0008.27,0004.29,0003.72
2022-07-03 19:58:00,,0824.2,5.00,0.00,29.3,27.9,00.0,38.0,31.2,26.1,0000.0,0008.32,0004.30,0003.73
2022-07-03 19:59:00,,0824.2,5.00,0.00,29.3,28.1,00.0,38.0,31.3,26.3,0000.0,0008.45,0004.35,0003.76
